GW0208 Weather Reports


time (UTC)temp
C
wind
direction
speed
KPH
gust
KPH
rain 1hr
cm
rain 24hr
cm
rain mn
cm
humidity
%
barometer
mb
20260507220505 8 0 0.0 0.0 0.00 0.00 0.00 90 1012.4
20260507220003 8 0 0.0 0.0 0.00 0.00 0.00 90 1012.5
20260507215505 8 0 0.0 0.0 0.00 0.00 0.00 89 1012.5
20260507215003 8 0 0.0 0.0 0.00 0.00 0.00 89 1012.6
20260507214505 8 0 0.0 0.0 0.00 0.00 0.00 88 1012.7
20260507214003 8 0 0.0 0.0 0.00 0.00 0.00 87 1012.6
20260507213505 9 0 0.0 0.0 0.00 0.00 0.00 87 1012.5
20260507213003 9 0 0.0 0.0 0.00 0.00 0.00 87 1012.5
20260507212505 10 0 0.0 0.0 0.00 0.00 0.00 87 1012.4
20260507212005 10 0 0.0 0.0 0.00 0.00 0.00 87 1012.3
20260507211505 10 0 0.0 0.0 0.00 0.00 0.00 86 1012.4
20260507211218 10 0 0.0 0.0 0.00 0.00 0.00 86 1012.4
20260507210503 10 0 0.0 0.0 0.00 0.00 0.00 86 1012.2
20260507210005 10 0 0.0 0.0 0.00 0.00 0.00 86 1012.3
20260507205503 10 0 0.0 0.0 0.00 0.00 0.00 85 1012.3
20260507205005 10 0 0.0 0.0 0.00 0.00 0.00 85 1012.3
20260507204719 10 0 0.0 0.0 0.00 0.00 0.00 84 1012.4
20260507204003 10 168 0.0 3.2 0.00 0.00 0.00 84 1012.1
20260507203503 10 165 1.6 6.4 0.00 0.00 0.00 84 1012.2
20260507203005 10 163 1.6 6.4 0.00 0.00 0.00 84 1012.1
20260507202505 10 160 1.6 3.2 0.00 0.00 0.00 84 1012.1
20260507202005 10 164 0.0 3.2 0.00 0.00 0.00 84 1012.0
20260507201504 10 173 0.0 3.2 0.00 0.00 0.00 84 1012.0
20260507201005 10 170 0.0 6.4 0.00 0.00 0.00 83 1011.7
20260507200505 11 172 1.6 6.4 0.00 0.00 0.00 83 1011.8
20260507200220 11 178 1.6 6.4 0.00 0.00 0.00 83 1012.1
20260507195719 11 187 1.6 6.4 0.00 0.00 0.00 82 1011.9
20260507195005 11 180 1.6 6.4 0.00 0.00 0.00 81 1011.9
20260507194505 11 175 0.0 3.2 0.00 0.00 0.00 81 1011.8
20260507194005 11 212 0.0 3.2 0.00 0.00 0.00 81 1011.7
20260507193505 11 204 1.6 3.2 0.00 0.00 0.00 81 1011.8
20260507193003 11 200 1.6 6.4 0.00 0.00 0.00 80 1011.9
20260507192506 11 220 3.2 6.4 0.00 0.00 0.00 80 1011.8
20260507192003 11 226 3.2 6.4 0.00 0.00 0.00 80 1011.5
20260507191503 11 192 1.6 6.4 0.00 0.00 0.00 79 1011.7
20260507191003 12 196 1.6 6.4 0.00 0.00 0.00 77 1011.5
20260507190505 12 226 3.2 6.4 0.00 0.00 0.00 78 1011.4
20260507190004 12 221 3.2 6.4 0.00 0.00 0.00 77 1011.6
20260507185503 12 204 1.6 3.2 0.00 0.00 0.00 75 1011.3
20260507185005 12 203 3.2 3.2 0.00 0.00 0.00 75 1011.5
20260507184506 12 190 3.2 11.3 0.00 0.00 0.00 74 1011.6
20260507184003 12 183 4.8 11.3 0.00 0.00 0.00 73 1011.6
20260507183505 13 163 6.4 14.5 0.00 0.00 0.00 72 1011.6
20260507183005 13 169 4.8 14.5 0.00 0.00 0.00 72 1011.7
20260507182503 13 187 4.8 11.3 0.00 0.00 0.00 73 1011.4
20260507182005 13 174 4.8 6.4 0.00 0.00 0.00 72 1011.4
20260507181718 13 181 3.2 6.4 0.00 0.00 0.00 71 1011.5
20260507181003 13 191 1.6 11.3 0.00 0.00 0.00 73 1011.5
20260507180718 13 214 3.2 11.3 0.00 0.00 0.00 72 1011.5
20260507180005 13 231 6.4 14.5 0.00 0.00 0.00 72 1011.4
20260507175718 13 224 4.8 14.5 0.00 0.00 0.00 72 1011.4
20260507175005 13 208 4.8 14.5 0.00 0.00 0.00 70 1011.3
20260507174505 13 216 3.2 11.3 0.00 0.00 0.00 71 1011.6
20260507174005 13 243 3.2 14.5 0.00 0.00 0.00 72 1011.6
20260507173505 13 248 1.6 14.5 0.00 0.00 0.00 72 1011.6
20260507173005 14 247 1.6 6.4 0.00 0.00 0.00 74 1011.6
20260507172503 13 242 1.6 6.4 0.00 0.00 0.00 76 1011.2
20260507172005 13 234 3.2 14.5 0.00 0.00 0.00 77 1011.5
20260507171505 12 235 4.8 14.5 0.00 0.00 0.00 75 1011.5
20260507171005 12 242 6.4 19.3 0.00 0.00 0.00 76 1011.7
20260507170503 12 244 6.4 19.3 0.00 0.00 0.00 76 1011.8
20260507170005 13 239 4.8 11.3 0.00 0.00 0.00 77 1011.8
20260507165506 13 240 4.8 19.3 0.00 0.00 0.00 77 1011.5
20260507165003 12 239 6.4 19.3 0.00 0.00 0.00 77 1011.7
20260507164505 12 244 9.7 19.3 0.00 0.00 0.00 75 1011.8
20260507164003 12 246 9.7 22.5 0.00 0.00 0.00 76 1011.6
20260507163505 12 236 11.3 22.5 0.00 0.00 0.00 76 1011.8
20260507163005 12 233 11.3 25.7 0.00 0.00 0.00 76 1011.5
20260507162503 12 233 12.9 29.0 0.00 0.00 0.00 75 1011.5
20260507162005 13 233 12.9 29.0 0.00 0.00 0.00 74 1011.6
20260507161503 13 235 14.5 29.0 0.00 0.00 0.00 76 1011.4
20260507161005 13 236 14.5 29.0 0.00 0.00 0.00 76 1011.5
20260507160505 14 235 12.9 25.7 0.00 0.00 0.00 73 1011.6
20260507160005 14 221 11.3 25.7 0.00 0.00 0.00 74 1011.6
20260507155503 15 236 11.3 22.5 0.00 0.00 0.00 72 1011.5
20260507155005 14 253 12.9 25.7 0.00 0.00 0.00 72 1011.4
20260507154505 14 234 11.3 25.7 0.00 0.00 0.00 73 1011.8
20260507154005 14 237 9.7 29.0 0.00 0.00 0.00 75 1011.5
20260507153504 14 234 11.3 29.0 0.00 0.00 0.00 74 1011.5
20260507153005 14 239 11.3 29.0 0.00 0.00 0.00 72 1011.5
20260507152504 15 241 9.7 22.5 0.00 0.00 0.00 70 1011.3
20260507152005 13 232 9.7 25.7 0.00 0.00 0.00 73 1011.5
20260507151505 13 220 9.7 25.7 0.00 0.00 0.00 74 1011.6
20260507151220 13 210 9.7 25.7 0.00 0.00 0.00 72 1011.8
20260507150503 13 187 8.0 22.5 0.00 0.00 0.00 72 1011.7
20260507150005 13 227 8.0 25.7 0.00 0.00 0.00 71 1011.7
20260507145503 13 240 9.7 25.7 0.00 0.00 0.00 74 1011.8
20260507145218 13 239 9.7 25.7 0.00 0.00 0.00 73 1011.8
20260507144505 13 238 11.3 25.7 0.00 0.00 0.00 72 1011.7
20260507144003 13 233 9.7 22.5 0.00 0.00 0.00 72 1011.7
20260507143717 13 223 8.0 22.5 0.00 0.00 0.00 71 1011.7
20260507143008 14 217 9.7 25.7 0.00 0.00 0.00 74 1011.7
20260507142505 14 231 12.9 25.7 0.00 0.00 0.00 71 1011.8
20260507142220 14 231 11.3 22.5 0.00 0.00 0.00 71 1011.8
20260507141505 14 219 12.9 25.7 0.00 0.00 0.00 71 1012.0
20260507141003 13 225 12.9 25.7 0.00 0.00 0.00 68 1011.9
20260507140505 14 239 12.9 29.0 0.00 0.00 0.00 67 1011.9
20260507140220 13 236 12.9 29.0 0.00 0.00 0.00 67 1011.8
20260507135716 13 227 9.7 25.7 0.00 0.00 0.00 70 1011.7
20260507135003 13 233 12.9 33.8 0.00 0.00 0.00 67 1012.0
20260507134505 13 224 11.3 33.8 0.00 0.00 0.00 69 1012.0
20260507134003 13 223 11.3 22.5 0.00 0.00 0.00 64 1012.1
20260507133505 13 225 12.9 29.0 0.00 0.03 0.00 67 1012.1
20260507133219 13 231 14.5 29.0 0.00 0.03 0.00 65 1012.1
20260507132504 13 238 14.5 33.8 0.00 0.03 0.00 63 1012.0
20260507132006 13 234 14.5 33.8 0.00 0.03 0.00 66 1012.3
20260507131503 13 240 14.5 29.0 0.00 0.03 0.00 67 1012.1
20260507131005 13 231 12.9 25.7 0.00 0.03 0.00 69 1012.1
20260507130505 13 213 11.3 25.7 0.00 0.03 0.00 72 1011.9
20260507130219 13 219 9.7 25.7 0.00 0.03 0.00 73 1012.0
20260507125503 13 227 9.7 25.7 0.00 0.03 0.00 72 1012.1
20260507125005 13 217 11.3 25.7 0.00 0.03 0.00 73 1012.2
20260507124503 13 229 11.3 25.7 0.00 0.03 0.00 72 1012.0
20260507124003 13 216 11.3 29.0 0.00 0.03 0.00 74 1012.2
20260507123503 13 224 11.3 29.0 0.00 0.03 0.00 76 1012.0
20260507123006 12 229 9.7 22.5 0.00 0.03 0.00 74 1012.1
20260507122503 13 203 9.7 22.5 0.00 0.03 0.00 75 1012.1
20260507122004 13 201 9.7 25.7 0.00 0.03 0.00 76 1012.1
20260507121503 13 196 8.0 25.7 0.00 0.03 0.00 75 1012.1
20260507121003 13 219 9.7 25.7 0.00 0.03 0.00 74 1011.9
20260507120503 13 235 8.0 25.7 0.00 0.03 0.00 76 1012.1
20260507120005 13 203 4.8 19.3 0.00 0.03 0.00 73 1011.9
20260507115504 13 222 6.4 25.7 0.00 0.03 0.00 74 1012.0
20260507115005 13 231 8.0 25.7 0.00 0.03 0.00 75 1012.1
20260507114505 13 224 9.7 22.5 0.00 0.03 0.00 77 1012.1
20260507114003 12 229 9.7 33.8 0.00 0.03 0.00 77 1011.6
20260507113503 12 233 11.3 33.8 0.00 0.03 0.00 78 1012.2
20260507113216 12 229 11.3 33.8 0.00 0.03 0.00 78 1012.0
20260507112720 12 213 11.3 25.7 0.00 0.03 0.00 78 1012.1
20260507112217 12 201 6.4 19.3 0.00 0.03 0.00 80 1011.9
20260507111504 12 198 6.4 19.3 0.00 0.03 0.00 81 1011.6
20260507111003 12 194 6.4 19.3 0.00 0.03 0.00 82 1012.1
20260507110505 12 198 6.4 19.3 0.00 0.03 0.00 82 1011.7
20260507110003 12 196 4.8 14.5 0.00 0.03 0.00 84 1011.7
20260507105505 12 193 6.4 14.5 0.00 0.03 0.00 83 1012.0
20260507105005 11 203 4.8 14.5 0.00 0.03 0.00 83 1012.0
20260507104719 11 201 4.8 22.5 0.00 0.03 0.00 82 1011.8
20260507104010 11 195 8.0 22.5 0.00 0.03 0.00 80 1011.8
20260507103505 12 199 8.0 22.5 0.00 0.03 0.00 79 1012.1
20260507103005 12 192 9.7 25.7 0.00 0.03 0.00 77 1011.7
20260507102505 12 189 9.7 25.7 0.00 0.03 0.00 77 1011.8
20260507102006 12 191 8.0 25.7 0.00 0.03 0.00 78 1011.8
20260507101503 12 188 8.0 19.3 0.00 0.03 0.00 79 1011.8
20260507101005 12 183 6.4 22.5 0.00 0.03 0.00 79 1011.8
20260507100505 13 165 6.4 25.7 0.00 0.03 0.00 78 1011.8
20260507100005 12 164 8.0 25.7 0.00 0.03 0.00 76 1011.9
20260507095505 12 168 8.0 25.7 0.00 0.03 0.00 77 1011.8
20260507095005 12 182 8.0 25.7 0.00 0.03 0.00 74 1011.7
20260507094505 12 196 8.0 37.0 0.00 0.03 0.00 76 1011.9
20260507094005 12 180 8.0 37.0 0.00 0.03 0.00 75 1011.8
20260507093505 13 165 11.3 22.5 0.00 0.03 0.00 74 1011.9
20260507093005 13 172 11.3 22.5 0.00 0.03 0.00 72 1011.9
20260507092503 13 181 9.7 25.7 0.00 0.03 0.00 72 1011.6
20260507092005 13 176 9.7 29.0 0.00 0.03 0.00 74 1011.9
20260507091505 13 174 11.3 29.0 0.00 0.03 0.00 73 1011.6
20260507091220 13 159 11.3 25.7 0.00 0.03 0.00 74 1011.6
20260507090503 13 145 14.5 29.0 0.00 0.03 0.00 74 1011.5
20260507090006 12 162 11.3 29.0 0.00 0.03 0.00 73 1011.6
20260507085503 12 187 8.0 22.5 0.00 0.03 0.00 76 1011.6
20260507085005 12 190 8.0 22.5 0.00 0.03 0.00 76 1011.7
20260507084505 12 162 8.0 25.7 0.00 0.03 0.00 77 1011.7
20260507084005 12 157 9.7 25.7 0.00 0.03 0.00 76 1011.5
20260507083503 12 157 9.7 29.0 0.00 0.03 0.00 79 1011.6
20260507083004 12 163 11.3 29.0 0.00 0.03 0.00 79 1011.6
20260507082503 12 182 9.7 29.0 0.00 0.03 0.00 80 1011.9
20260507082005 12 181 8.0 29.0 0.00 0.03 0.00 80 1011.5
20260507081505 12 163 8.0 29.0 0.00 0.03 0.00 83 1011.5
20260507081003 11 147 8.0 29.0 0.00 0.03 0.00 84 1011.5
20260507080503 11 162 6.4 29.0 0.00 0.03 0.00 84 1011.4
20260507080217 11 165 8.0 22.5 0.00 0.03 0.00 85 1011.5
20260507075505 11 165 6.4 22.5 0.00 0.03 0.00 86 1011.6
20260507075005 11 175 4.8 22.5 0.00 0.03 0.00 87 1011.5
20260507074505 11 173 4.8 22.5 0.00 0.03 0.00 87 1011.3
20260507074005 11 169 4.8 22.5 0.00 0.03 0.00 87 1011.4
20260507073503 11 162 6.4 19.3 0.00 0.03 0.00 88 1011.5
20260507073004 11 153 6.4 19.3 0.00 0.03 0.00 89 1011.4
20260507072505 11 157 4.8 22.5 0.00 0.03 0.00 90 1011.5
20260507072005 10 174 1.6 22.5 0.00 0.03 0.00 91 1011.5
20260507071505 10 0 0.0 0.0 0.00 0.03 0.00 91 1011.4
20260507071217 10 0 0.0 0.0 0.00 0.03 0.00 90 1011.2
20260507070505 10 0 0.0 0.0 0.00 0.03 0.00 90 1011.4
20260507070009 10 0 0.0 0.0 0.00 0.03 0.00 90 1011.4
20260507065503 10 167 0.0 11.3 0.00 0.03 0.00 90 1011.2
20260507065005 10 159 1.6 11.3 0.00 0.03 0.00 90 1011.4
20260507064505 10 148 1.6 11.3 0.00 0.03 0.00 91 1011.4
20260507064005 10 153 0.0 11.3 0.00 0.03 0.00 91 1011.5
20260507063504 10 153 0.0 6.4 0.00 0.03 0.00 92 1011.4
20260507063006 9 126 0.0 3.2 0.00 0.03 0.00 93 1011.5
20260507062720 9 126 0.0 3.2 0.00 0.03 0.00 93 1011.3
20260507062003 9 98 0.0 11.3 0.00 0.03 0.00 93 1011.4
20260507061505 9 117 0.0 11.3 0.00 0.03 0.00 94 1011.4
20260507061005 9 157 0.0 3.2 0.00 0.03 0.00 94 1011.4
20260507060505 9 0 0.0 0.0 0.00 0.03 0.00 94 1011.3
20260507060005 9 173 0.0 3.2 0.00 0.03 0.00 94 1011.2
20260507055506 9 143 0.0 3.2 0.00 0.03 0.00 94 1011.2
20260507055005 9 120 0.0 3.2 0.00 0.03 0.00 94 1011.4
20260507054503 8 0 0.0 0.0 0.00 0.03 0.00 94 1011.3
20260507054005 8 0 0.0 0.0 0.00 0.03 0.00 94 1011.3
20260507053722 8 0 0.0 0.0 0.00 0.03 0.00 94 1011.4
20260507053004 8 0 0.0 0.0 0.00 0.03 0.00 95 1011.2
20260507052503 8 0 0.0 0.0 0.00 0.03 0.00 95 1011.2
20260507052005 8 0 0.0 0.0 0.00 0.03 0.00 95 1011.2
20260507051503 8 0 0.0 0.0 0.00 0.03 0.00 95 1011.2
20260507051003 8 0 0.0 0.0 0.00 0.03 0.00 95 1011.3
20260507050504 8 0 0.0 0.0 0.00 0.03 0.00 95 1011.5
20260507050005 8 0 0.0 0.0 0.00 0.03 0.00 95 1011.3
20260507045503 8 0 0.0 0.0 0.00 0.03 0.00 95 1011.1
20260507045005 7 0 0.0 0.0 0.00 0.03 0.00 95 1011.1
20260507044503 7 0 0.0 0.0 0.00 0.03 0.00 95 1011.4
20260507044218 7 0 0.0 0.0 0.00 0.03 0.00 95 1011.4
20260507043505 7 0 0.0 0.0 0.00 0.03 0.00 95 1011.2
20260507043218 7 0 0.0 0.0 0.00 0.03 0.00 95 1011.2
20260507042503 7 0 0.0 0.0 0.00 0.03 0.00 95 1011.1
20260507042003 7 0 0.0 0.0 0.00 0.03 0.00 95 1010.9
20260507041506 7 0 0.0 0.0 0.00 0.03 0.00 95 1011.3
20260507041005 7 0 0.0 0.0 0.00 0.03 0.00 95 1011.1
20260507040505 7 0 0.0 0.0 0.00 0.03 0.00 95 1011.1
20260507040220 7 0 0.0 0.0 0.00 0.03 0.00 95 1011.2
20260507035504 7 0 0.0 0.0 0.00 0.03 0.00 95 1011.1
20260507035003 7 0 0.0 0.0 0.00 0.03 0.00 95 1011.1
20260507034503 7 0 0.0 0.0 0.00 0.03 0.00 95 1011.1
20260507034218 7 0 0.0 0.0 0.00 0.03 0.00 95 1011.3
20260507033505 7 0 0.0 0.0 0.00 0.03 0.00 95 1011.4
20260507033220 7 0 0.0 0.0 0.00 0.03 0.00 95 1011.5
20260507032505 7 0 0.0 0.0 0.00 0.03 0.00 96 1011.1
20260507032005 7 0 0.0 0.0 0.00 0.03 0.00 96 1011.3
20260507031716 7 0 0.0 0.0 0.00 0.03 0.00 96 1011.0
20260507031003 7 0 0.0 0.0 0.00 0.03 0.00 96 1011.1
20260507030503 7 0 0.0 0.0 0.00 0.03 0.00 96 1011.1
20260507030014 7 0 0.0 0.0 0.00 0.03 0.00 96 1011.1
20260507025505 7 0 0.0 0.0 0.00 0.03 0.00 96 1011.1
20260507025005 7 0 0.0 0.0 0.00 0.03 0.00 96 1011.1
20260507024503 7 0 0.0 0.0 0.00 0.03 0.00 96 1010.9
20260507024005 7 0 0.0 0.0 0.00 0.03 0.00 96 1011.2
20260507023503 6 0 0.0 0.0 0.00 0.03 0.00 96 1011.3
20260507023006 6 0 0.0 0.0 0.00 0.03 0.00 96 1011.1
20260507022718 6 0 0.0 0.0 0.00 0.03 0.00 96 1011.2
20260507022005 6 0 0.0 0.0 0.00 0.03 0.00 96 1011.3
20260507021505 6 0 0.0 0.0 0.00 0.03 0.00 96 1011.3
20260507021008 6 0 0.0 0.0 0.00 0.03 0.00 96 1011.4
20260507020505 6 0 0.0 0.0 0.00 0.03 0.00 96 1011.4
20260507020005 6 0 0.0 0.0 0.00 0.03 0.00 96 1011.3
20260507015503 6 0 0.0 0.0 0.00 0.03 0.00 96 1011.5
20260507015005 6 0 0.0 0.0 0.00 0.03 0.00 96 1011.4
20260507014503 6 0 0.0 0.0 0.00 0.03 0.00 96 1011.7
20260507014003 6 0 0.0 0.0 0.00 0.03 0.00 96 1011.5
20260507013718 6 0 0.0 0.0 0.00 0.03 0.00 96 1011.2
20260507013010 6 0 0.0 0.0 0.00 0.03 0.00 96 1011.3
20260507012718 6 0 0.0 0.0 0.00 0.03 0.00 96 1011.4
20260507012003 6 0 0.0 0.0 0.00 0.03 0.00 96 1011.6
20260507011505 6 0 0.0 0.0 0.00 0.03 0.00 96 1011.6
20260507011005 6 0 0.0 0.0 0.00 0.03 0.00 96 1011.8
20260507010505 6 0 0.0 0.0 0.00 0.03 0.00 96 1011.5
20260507010004 6 0 0.0 0.0 0.00 0.03 0.00 96 1011.7
20260507005720 6 0 0.0 0.0 0.00 0.03 0.00 95 1011.7
20260507005005 6 0 0.0 0.0 0.00 0.03 0.00 95 1011.6
20260507004717 6 0 0.0 0.0 0.00 0.03 0.00 95 1011.6
20260507004003 6 0 0.0 0.0 0.00 0.03 0.00 95 1011.7
20260507003505 6 0 0.0 0.0 0.00 0.03 0.00 95 1011.5
20260507003005 6 0 0.0 0.0 0.00 0.03 0.00 95 1012.0
20260507002505 6 0 0.0 0.0 0.00 0.03 0.00 95 1011.8
20260507002218 6 0 0.0 0.0 0.00 0.03 0.00 95 1011.6
20260507001505 6 0 0.0 0.0 0.00 0.03 0.00 95 1011.9
20260507001216 6 0 0.0 0.0 0.00 0.03 0.00 95 1011.8
20260507000719 6 0 0.0 0.0 0.00 0.03 0.00 95 1011.8
20260507000005 6 0 0.0 0.0 0.00 0.03 0.00 95 1011.9
20260506235505 6 0 0.0 0.0 0.00 0.03 0.00 95 1012.0
20260506235006 5 0 0.0 0.0 0.00 0.03 0.00 95 1012.0
20260506234503 5 0 0.0 0.0 0.00 0.03 0.00 95 1011.9
20260506234005 5 0 0.0 0.0 0.00 0.03 0.00 95 1011.9
20260506233503 5 0 0.0 0.0 0.00 0.03 0.00 95 1011.9
20260506233005 5 0 0.0 0.0 0.00 0.03 0.00 95 1012.0
20260506232504 5 0 0.0 0.0 0.00 0.03 0.00 95 1011.9
20260506232005 5 0 0.0 0.0 0.00 0.03 0.00 94 1011.7
20260506231504 5 0 0.0 0.0 0.00 0.03 0.00 94 1011.8
20260506231003 5 0 0.0 0.0 0.00 0.03 0.00 94 1012.2
20260506230503 5 0 0.0 0.0 0.00 0.03 0.00 94 1012.0
20260506230003 5 0 0.0 0.0 0.00 0.03 0.00 94 1012.0
20260506225505 5 0 0.0 0.0 0.00 0.03 0.03 94 1012.2
20260506225006 5 0 0.0 0.0 0.00 0.03 0.03 94 1012.0
20260506224503 5 0 0.0 0.0 0.00 0.03 0.03 94 1012.0
20260506224005 5 0 0.0 0.0 0.00 0.03 0.03 93 1011.8
20260506223503 5 61 0.0 3.2 0.00 0.03 0.03 93 1011.9
20260506223005 5 61 0.0 3.2 0.00 0.03 0.03 93 1011.9
20260506222505 5 0 0.0 0.0 0.00 0.03 0.03 93 1011.8
20260506222003 5 0 0.0 0.0 0.00 0.03 0.03 93 1011.9
20260506221506 5 0 0.0 0.0 0.00 0.03 0.03 93 1011.9
20260506221005 5 0 0.0 0.0 0.00 0.03 0.03 92 1011.9